Regional Weather Roundup
Issued by NWS

Home | Current Version | Previous Version | Text Only | Print | Product List | Glossary Off
Versions: 1 2 3 4 5 6 7 8 9 10 11 12 13 14 15 16 17 18 19 20 21 22 23 24 25 26 27 28 29 30 31 32 33 34 35 36 37 38 39 40 41 42 43 44 45 46 47 48 49 50

000
ASUS43 KDTX 292201
RWRMI
MICHIGAN HOURLY REGIONAL WEATHER ROUNDUP
NATIONAL WEATHER SERVICE DETROIT/PONTIAC MI
600 PM EDT FRI AUG 29 2014

NOTE: "FAIR" INDICATES FEW OR NO CLOUDS BELOW 12,000 FEET WITH NO
SIGNIFICANT WEATHER AND/OR OBSTRUCTION TO VISIBILITY.

MIZ047>049-052>055-059>063-066>070-074>076-081>083-292300-
SOUTHEAST LOWER MICHIGAN

CITY           SKY/WX    TMP DP  RH WIND       PRES   REMARKS
ADRIAN         MOSUNNY   81  62  52 SE9       30.04S
ALMA           CLOUDY    73  65  77 SE3       30.00F
ANN ARBOR      MOSUNNY   78  61  55 SE7       30.04F
BAD AXE        PTSUNNY   70  55  58 S8G20     30.04F
CARO           CLOUDY    71  59  66 SE8       30.02F
DETROIT CITY   MOSUNNY   77  48  35 SE8       30.07S
DETROIT        PTSUNNY   76  59  55 SE7       30.06F
FLINT          PTSUNNY   76  55  48 S8        30.04S
GROSSE ILE     SUNNY     75  61  60 SE5       30.05F
HILLSDALE      MOSUNNY   81  65  57 S6        30.03S
HOWELL         PTSUNNY   74  62  65 SE9       30.04S

CITY           SKY/WX    TMP DP  RH WIND       PRES   REMARKS
JACKSON        MOSUNNY   79  64  60 SE9       30.02F
LAMBERTVILLE   MOSUNNY   77  63  61 NE8       30.05S
LANSING        CLOUDY    76  63  64 SE12      30.01F
LAPEER         CLOUDY    71  54  55 SE8       30.05F
MASON          PTSUNNY   74  64  71 SE9       30.02F
MONROE         SUNNY     73  63  68 E9        30.04S
MT. CLEMENS    MOSUNNY   73  54  52 SE12      30.06F
PONTIAC        PTSUNNY   76  50  40 SE13      30.05F
PORT HOPE        N/A     71  57  61 VRB6      30.02F
PORT HURON     MOSUNNY   72  54  53 S9        30.08S
TRI CITIES     CLOUDY    74  57  55 S12       30.01F
TROY           MOSUNNY   77  46  33 SE5       30.08S
SAGINAW HB     CLOUDY    72  59  64 S10       30.01S
$$
MIZ043>046-050>051-056>058-064>065-071>073-077>080-292300-
SOUTHWEST LOWER MICHIGAN

CITY           SKY/WX    TMP DP  RH WIND       PRES   REMARKS
BATTLE CREEK   PTSUNNY   80  66  62 SE7       30.00F
BENTON HARBOR  PTSUNNY   79  71  76 SE14G23   29.94F
BIG RAPIDS     CLOUDY    73  69  88 S13G18    29.96F
COLDWATER      PTSUNNY   82  67  60 S6        30.01S
FREMONT        FAIR      74  66  77 SE7       29.94F
HOLLAND        CLOUDY    77  71  82 SE9       29.95F
GRAND RAPIDS   CLOUDY    73  72  96 SE13      29.98F
IONIA          LGT RAIN  74  67  79 S9        29.98F
KALAMAZOO      LGT RAIN  78  68  71 S5        29.99F
LUDINGTON      MOSUNNY   80  72  76 S12G18    29.90F
MARSHALL       PTSUNNY   79  67  65 S6        30.00S
MOUNT PLEASANT CLOUDY    73  62  69 SE5       29.99S
MUSKEGON       CLOUDY    76  68  76 SE10      29.94F
SOUTH HAVEN    PTSUNNY   78  73  83 SE12      29.95F
$$
MIZ016>042-292300-
NORTHERN LOWER MICHIGAN

CITY           SKY/WX    TMP DP  RH WIND       PRES   REMARKS
ALPENA         PTSUNNY   69  61  75 S13       29.98F
BEAVER ISLAND  CLOUDY    68  65  92 E7        29.90S
BELLAIRE       MOSUNNY   76  63  63 S9G20     29.89F
CADILLAC       MOSUNNY   71  64  79 S9        29.96S
CHARLEVOIX     PTSUNNY   76  69  78 SE8       29.91F
FRANKFORT      MOSUNNY   79  66  63 S12       29.88S
GAYLORD        MOSUNNY   71  62  73 S13G24    29.95F
GRAYLING       PTSUNNY   74  64  71 S14G21    29.97F
HARBOR SPRINGS PTSUNNY   74  65  73 CALM      29.90F
HOUGHTON LAKE  CLOUDY    69  61  75 SE13      29.98F
MANISTEE       MOSUNNY   75  66  73 S8        29.90F
OSCODA         CLOUDY    70  63  78 S7        30.00F
PELLSTON       PTSUNNY   73  67  81 SE7       29.91F
TRAVERSE CITY  PTSUNNY   78  65  63 VRB7      29.89S
$$
MIZ007>008-015-292300-
EASTERN UPPER MICHIGAN

CITY           SKY/WX    TMP DP  RH WIND       PRES   REMARKS
KINROSS        CLOUDY    61  61 100 SE16      29.93F
MACKINAC ISLAN CLOUDY    62  62 100 E13       29.91F
NEWBERRY       CLOUDY    61  61  99 SE6       29.89F
S. S. MARIE    CLOUDY    60  57  89 SE10G18   29.95F
$$
MIZ004>006-011>014-085-292300-
CENTRAL UPPER MICHIGAN

CITY           SKY/WX    TMP DP  RH WIND       PRES   REMARKS
MANISTIQUE     CLOUDY    64  63  97 SE7       29.87F
ESCANABA       CLOUDY    68  64  88 S8        29.84F
MENOMINEE      SUNNY     73  66  78 S14       29.82S
SAWYER-GWINN   CLOUDY    66  64  94 S14       29.82F FOG
$$
MIZ001>003-009>011-084-292300-
WESTERN UPPER MICHIGAN

CITY           SKY/WX    TMP DP  RH WIND       PRES   REMARKS
IRON MOUNTAIN  CLOUDY    69  66  90 SE7       29.82F FOG
HOUGHTON       RAIN      64  62  93 E8        29.77F FOG
COPPER HARBOR    N/A     63  60  90 S3        29.77F
$$

ABBREVIATIONS USED IN REMARKS
   TC - TEMPERATURE IN CELSIUS
  WCI - WIND CHILL INDEX
   HX - HEAT INDEX
  VSB - VISIBILITY




USA.gov is the U.S. government's official web portal to all federal, state and local government web resources and services.